Regional Weather Roundup
Issued by NWS

Home | Current Version | Previous Version | Graphics & Text | Print | Product List | Glossary On
Versions: 1 2 3 4 5 6 7 8 9 10 11 12 13 14 15 16 17 18 19 20 21 22 23 24 25 26 27 28 29 30 31 32 33 34 35 36 37 38 39 40 41 42 43 44 45 46 47 48 49 50
768
ASUS45 KBOU 111007
RWRCO

WEATHER ROUNDUP FOR COLORADO
NATIONAL WEATHER SERVICE DENVER/BOULDER CO
300 AM MST THU FEB 11 2016

NOTE: "FAIR" INDICATES FEW OR NO CLOUDS BELOW 12000 FEET WITH NO
SIGNIFICANT WEATHER AND/OR OBSTRUCTIONS TO VISIBILITY.

COZ001>005-013-030-031-111100-
...NORTHWEST COLORADO...

CITY           SKY/WX    TMP DP  RH WIND       PRES   REMARKS
CRAIG          CLOUDY    -2  -7  79 CALM      30.39S
HAYDEN         CLOUDY    19   9  63 E13       30.36F WCI   7
MEEKER         CLOUDY    12   6  77 CALM      30.38F
MOUNT WERNER   NOT AVBL
STEAMBOAT SPGS CLOUDY    13  10  88 CALM      30.38S
WALDEN         CLOUDY    16   5  62 SE7       30.35F WCI   6
$$

COZ006>008-011-111100-
...WEST CENTRAL VALLEYS...

CITY           SKY/WX    TMP DP  RH WIND       PRES   REMARKS
GRAND JUNCTION CLOUDY    24  21  88 CALM      30.40R
MONTROSE       CLOUDY    22  15  75 S7        30.42F WCI  13
EAGLE          CLOUDY    16  12  86 SE3       30.45S
RIFLE          CLOUDY    15   9  76 E5        30.42S WCI   8
DELTA          CLOUDY    26  23  89 N3        30.42S
NUCLA          CLOUDY    25  18  74 E7        30.42S WCI  17
$$

COZ017>023-064>068-111100-
...SOUTHWEST COLORADO...

CITY           SKY/WX    TMP DP  RH WIND       PRES   REMARKS
DURANGO        CLOUDY    19  13  77 N8        30.36S WCI   9
CORTEZ         CLOUDY    20  14  77 NE6       30.36S WCI  12
PAGOSA SPRINGS CLOUDY    22  16  75 NE3       30.37S
TELLURIDE      CLOUDY    28   3  34 E5        30.43S WCI  23
WOLF CREEK PAS CLOUDY    27  -6  24 NE6       30.49S WCI  20
$$

COZ009-010-012-014-032>034-037-058>063-111100-
...CENTRAL COLORADO...

CITY           SKY/WX    TMP DP  RH WIND       PRES   REMARKS
ASPEN          CLOUDY    16   7  67 CALM      30.39S
BUENA VISTA    CLOUDY    31  11  44 SE3       30.34R
COPPER MTN     CLOUDY    27   1  33 W10       30.44S WCI  17
BERTHOUD PASS  FAIR      18   7  62 NW38      30.35F WCI  -4
COTTONWOOD PAS CLOUDY    34   0  23 W8        30.37R WCI  27
GUNNISON       CLOUDY    -6 N/A N/A CALM      30.51S
KREMMLING      CLOUDY    -6  -9  84 CALM      30.44F
LEADVILLE      CLOUDY    16   1  51 N5        30.39S WCI   9
MONARCH PASS   CLOUDY    21   1  42 MISG      30.54R
SALIDA         NOT AVBL
SUNLIGHT       CLOUDY    28  10  47 CALM        N/A
WILKERSON PASS CLOUDY    28   0  29 NW9G17    30.39F WCI  20
$$

COZ069>075-111100-
...SAN LUIS VALLEY/SANGRE DE CRISTO MOUNTAINS...

CITY           SKY/WX    TMP DP  RH WIND       PRES   REMARKS
ALAMOSA        CLOUDY    19  16  88 CALM      30.35F
LA VETA PASS   CLOUDY    30   9  40 MISG      30.37S
SAGUACHE       CLOUDY    27  12  54 NW14      30.38S WCI  15
$$

COZ035-036-038>040-111100-
...NORTHERN COLORADO FRONT RANGE...

CITY           SKY/WX    TMP DP  RH WIND       PRES   REMARKS
DENVER INTL AP CLOUDY    38  18  44 S8        30.17F
DMNS CITY PARK   N/A     36  17  47 SE8G17    30.17F
AURORA         NOT AVBL
FRONT RANGE AP   N/A     32  21  64 S7        30.19S WCI  26
ERIE MUNI ARPT CLOUDY    30  21  70 CALM      30.15F
BOULDER MUN AP CLOUDY    52  10  19 W10G16    30.15F
CENTENNIAL     CLOUDY    34  17  50 S5        30.19F WCI  30
BROOMFIELD     CLOUDY    46  10  23 W8        30.17F
FORT COLLINS   CLOUDY    36  16  44 S6        30.15F
LONGMONT       CLOUDY    31  21  65 E6        30.17F WCI  26
$$

COZ041-046-047-076>085-087-088-111100-
...PIKES PEAK/PALMER DIVIDE AND SOUTHERN FOOTHILLS...

CITY           SKY/WX    TMP DP  RH WIND       PRES   REMARKS
COLO. SPRINGS  CLOUDY    37  14  38 S8        30.25R
A. F. ACADEMY  NOT AVBL
SCHRIEVER AFB  NOT AVBL
ELLICOTT       CLOUDY   N/A N/A N/A S5        30.23R
FALCON         NOT AVBL
FORT CARSON    NOT AVBL
LIMON          CLOUDY    27  16  63 NW6       30.20F WCI  20
MONUMENT HILL  CLOUDY    27   9  46 SW8       30.25F WCI  18
TRINIDAD       CLOUDY    30  12  47 W12       30.24F WCI  20
$$

COZ042>045-048>051-090-091-111100-
...NORTHEAST COLORADO...

CITY           SKY/WX    TMP DP  RH WIND       PRES   REMARKS
GREELEY ARPT   CLOUDY    25  18  74 S3        30.16F
AKRON          CLOUDY    33  21  61 SW8       30.14F WCI  26
BURLINGTON     CLOUDY    30  21  69 W9        30.16F WCI  22
WRAY           NOT AVBL
STERLING       CLOUDY    30  25  80 SW9       30.12F WCI  22
HOLYOKE        CLOUDY    30  27  86 S5        30.14S WCI  25
FORT MORGAN    CLOUDY    28  20  74 W9        30.16F WCI  19
$$

COZ086-089-092>099-111100-
...SOUTHEAST COLORADO...

CITY           SKY/WX    TMP DP  RH WIND       PRES   REMARKS
PUEBLO         CLOUDY    35  22  58 E7        30.22R WCI  29
LA JUNTA       CLOUDY    35  25  66 W12       30.21R WCI  27
LAMAR          CLOUDY    32  23  69 SW3       30.18R
SPRINGFIELD      N/A     30  19  63 W10       30.18S WCI  21
$$




USA.gov is the U.S. government's official web portal to all federal, state and local government web resources and services.